Quincy, IL

10:33 AM CST on November 20, 2019 (GMT -0600)
Quincy Regional-Baldwin

Weather History for KUIN - September, 2019

Change the Weather History Date:

Monday, September 23, 2019

  Actual Average Record
Temperature  
Mean Temperature 66 °F 63 °F  
Max Temperature 75 °F 74 °F 95 °F (1937)
Min Temperature 57 °F 52 °F 33 °F (1995)
Degree Days  
Heating Degree Days 0 4  
Month to date heating degree days 0 44  
Since 1 July heating degree days 2 49  
Cooling Degree Days 2 2  
Month to date cooling degree days 208 109  
Year to date cooling degree days 1265 1062  
Growing Degree Days 16 (Base 50)    
Moisture  
Dew Point 57 °F    
Average Humidity 81    
Maximum Humidity 100    
Minimum Humidity 44    
Precipitation  
Precipitation 0.00 in 0.12 in 2.16 in (1970)
Month to date precipitation 2.65 2.53  
Year to date precipitation 33.68 28.28  
Sea Level Pressure  
Sea Level Pressure 30.05 in    
Wind  
Wind Speed 6 mph ()    
Max Wind Speed 14 mph    
Max Gust Speed 18 mph    
Visibility 8.8 miles    
Events Fog    
T = Trace of Precipitation, MM = Missing Value Source: Averaged Metar Reports

Daily Weather History Graph

Daily Weather History Graph

Search for Another Location

Airport or City:

Astronomy

Sep. 23, 2019 Rise Set
Actual Time 6:53 AM CDT 7:00 PM CDT
Civil Twilight 6:26 AM CDT 7:27 PM CDT
Nautical Twilight 5:54 AM CDT 7:59 PM CDT
Astronomical Twilight 5:22 AM CDT 8:31 PM CDT
Moon 12:36 AM CDT (9/23) 3:53 PM CDT (9/23)
Length of Visible Light 13h 01m
Length of Day
12h 07m
Waning Crescent, 33% of the Moon is Illuminated
Sep 23
Waning Crescent
Sep 28
New
Oct 5
First Quarter
Oct 13
Full
Oct 21
Last Quarter

Hourly Weather History & Observations

Time (CDT) Temp. Dew Point Humidity Pressure Visibility Wind Dir Wind Speed Gust Speed Precip Events Conditions
12:54 AM 66.0 °F 64.0 °F 93% 29.96 in 10.0 mi NNW 8.1 mph - N/A   Overcast
1:07 AM 66.0 °F 64.0 °F 93% 29.97 in 10.0 mi NW 6.9 mph - N/A   Overcast
1:19 AM 66.0 °F 64.0 °F 93% 29.98 in 10.0 mi NNW 12.7 mph - N/A   Overcast
1:27 AM 66.0 °F 64.0 °F 93% 29.98 in 10.0 mi NNW 13.8 mph - N/A   Overcast
1:49 AM 64.4 °F 62.6 °F 94% 29.99 in 10.0 mi NW 11.5 mph - N/A   Partly Cloudy
1:54 AM 64.0 °F 62.1 °F 93% 29.98 in 10.0 mi NW 9.2 mph - N/A   Partly Cloudy
2:33 AM 62.1 °F 61.0 °F 96% 30.00 in 10.0 mi NNW 10.4 mph - N/A   Mostly Cloudy
2:54 AM 62.1 °F 61.0 °F 96% 29.99 in 10.0 mi NW 10.4 mph - N/A   Mostly Cloudy
3:41 AM 60.1 °F 57.9 °F 93% 30.01 in 10.0 mi NW 8.1 mph - N/A   Partly Cloudy
3:54 AM 59.0 °F 57.9 °F 96% 30.00 in 10.0 mi NW 6.9 mph - N/A   Partly Cloudy
4:49 AM 59.0 °F 57.2 °F 94% 30.02 in 9.0 mi NW 8.1 mph - N/A   Mostly Cloudy
4:54 AM 57.9 °F 57.0 °F 97% 30.01 in 8.0 mi NW 6.9 mph - N/A   Mostly Cloudy
5:54 AM 57.9 °F 57.0 °F 97% 30.04 in 9.0 mi West 4.6 mph - N/A   Overcast
6:35 AM 57.9 °F 57.0 °F 97% 30.06 in 1.8 mi NW 4.6 mph - N/A   Overcast
6:51 AM 57.2 °F 57.2 °F 100% 30.06 in 2.0 mi NW 5.8 mph - N/A   Overcast
6:54 AM 57.9 °F 57.0 °F 97% 30.05 in 1.8 mi NNW 5.8 mph - N/A   Overcast
7:23 AM 57.9 °F 57.0 °F 97% 30.08 in 0.5 mi NNW 5.8 mph - N/A Fog Fog
7:45 AM 57.9 °F 55.9 °F 93% 30.09 in 2.5 mi WNW 5.8 mph - N/A   Overcast
7:52 AM 57.2 °F 55.4 °F 94% 30.09 in 9.0 mi WNW 6.9 mph - N/A   Overcast
7:54 AM 57.9 °F 55.9 °F 93% 30.09 in 10.0 mi NW 5.8 mph - N/A   Overcast
8:45 AM 57.9 °F 55.9 °F 93% 30.11 in 10.0 mi NNW 5.8 mph - N/A   Overcast
8:54 AM 57.9 °F 55.9 °F 93% 30.11 in 10.0 mi NW 5.8 mph - N/A   Overcast
9:32 AM 60.1 °F 55.9 °F 86% 30.13 in 10.0 mi NW 3.5 mph - N/A   Scattered Clouds
9:54 AM 62.1 °F 55.9 °F 80% 30.12 in 10.0 mi WNW 4.6 mph - N/A   Scattered Clouds
10:54 AM 66.0 °F 55.0 °F 68% 30.12 in 10.0 mi Calm Calm - N/A   Clear
11:54 AM 68.0 °F 55.0 °F 63% 30.12 in 10.0 mi Calm Calm - N/A   Clear
12:54 PM 72.0 °F 53.1 °F 51% 30.10 in 10.0 mi WNW 4.6 mph - N/A   Clear
1:54 PM 73.9 °F 53.1 °F 48% 30.09 in 10.0 mi Variable 3.5 mph - N/A   Clear
2:54 PM 75.0 °F 52.0 °F 44% 30.07 in 10.0 mi Calm Calm - N/A   Clear
3:54 PM 75.9 °F 53.1 °F 45% 30.06 in 10.0 mi Variable 3.5 mph - N/A   Clear
4:54 PM 75.0 °F 53.1 °F 46% 30.05 in 10.0 mi WNW 3.5 mph - N/A   Clear
5:54 PM 75.0 °F 54.0 °F 48% 30.04 in 10.0 mi Calm Calm - N/A   Clear
6:54 PM 71.1 °F 57.0 °F 61% 30.04 in 10.0 mi SSE 3.5 mph - N/A   Clear
7:54 PM 66.0 °F 57.0 °F 73% 30.04 in 10.0 mi SE 4.6 mph - N/A   Clear
8:54 PM 64.0 °F 57.0 °F 78% 30.04 in 10.0 mi SE 5.8 mph - N/A   Clear
9:54 PM 64.9 °F 55.0 °F 70% 30.04 in 10.0 mi SSE 4.6 mph - N/A   Clear
10:54 PM 64.0 °F 54.0 °F 70% 30.03 in 10.0 mi South 4.6 mph - N/A   Clear
11:54 PM 63.0 °F 54.0 °F 72% 30.03 in 10.0 mi South 3.5 mph - N/A   Clear